Probability
0 0 0 0 0 0 0 0 0 0 0 0 0 0 0 0 0 0 0 0 0 0 0 0 0 0 0 0 0 0 0 0 0 0 0 0 0 0 0 0 0 0 0 0
0 0 0 0 0 0 0 0 0 0 0 0 0 0 0 0 0 0 0 0 0 0 0 0 0 0 0 0 0 0 0 0 0 0 0 0 0 0 0 0 0 0 0 0
0 0 0 0 0 0 0 0 0 0 0 0 0 0 0 0 0 0 0 0 0 0 0 0 0 0 0 0 0 0 0 0 0 0 0 0 0 0 0 0 0 0 0 0
0 0 0 0 0 0 0 0 0 0 0 0 0 0 0 0 0 0 0 0 0 0 0 0 0 0 0 0 0 0 0 0 0 0 0 0 0 0 0 0 0 0 0 0
0 0 0 0 0 0 0 0 0 0 0 0 0 0 0 0 0 0 0 0 0 0 0 0 0 0 0 0 0 0 0 0 0 0 0 0 0 0 0 0 0 0 0 0
0 0 0 0 0 0 0 0 0 0 0 0 0 0 0 0 0 0 0 0 0 0 0 0 0 0 0 0 0 0 0 0 0 0 0 0 0 0 0 0 0 0 0 0
0 0 0 0 0 0 0 0 0 0 0 0 0 0 0 0 0 0 0 0 0 0 0 0 0 0 0 0 0 0 0 0 0 0 0 0 0 0 0 0 0 0 0 0
0 0 0 0 0 0 0 0 0 0 0 0 0 0 0 0 0 0 0 0 0 0 0 0 0 0 0 0 0 0 0 0 0 0 0 0 0 0 0 0 0 0 0 0
0 0 0 0 0 0 0 0 0 0 0 0 0 0 0 0 0 0 0 0 0 0 0 0 0 0 0 0 0 0 0 0 0 0 0 0 0 0 0 0 0 0 0 0
0 0 0 0 0 0 0 0 0 0 0 0 0 0 0 0 0 0 0 0 0 0 0 0 0 0 0 0 0 0 0 0 0 0 0 0 0 0 0 0 0 0 0 0
0 0 0 0 0 0 0 0 0 0 0 0 0 0 0 0 0 0 0 0 0 0 0 0 0 0 0 0 0 0 0 0 0 0 0 0 0 0 0 0 0 0 0 0
0 0 0 0 0 0 0 0 0 0 0 0 0 0 0 0 0 0 0 0 0 0 0 0 0 0 0 0 0 0 0 0 0 0 0 0 0 0 0 0 0 0 0 0
0 0 0 0 0 0 0 0 0 0 0 0 0 0 0 0 0 0 0 0 0 0 0 0 0 0 0 0 0 0 0 0 0 0 0 0 0 0 0 0 0 0 0 0
0 0 0 0 0 0 0 0 0 0 0 0 0 0 0 0 0 0 0 0 0 0 0 0 0 0 0 0 0 0 0 0 0 0 0 0 0 0 0 0 0 0 0 0
0 0 0 0 0 0 0 0 0 0 0 0 0 0 0 0 0 0 0 0 0 0 0 0 0 0 0 0 0 0 0 0 0 0 0 0 0 0 0 0 0 0 0 0
0 0 0 0 0 0 0 0 0 0 0 0 0 0 0 0 0 0 0 0 0 0 0 0 0 0 0 0 0 0 0 0 0 0 0 0 0 0 0 0 0 0 0 0
0 0 0 0 0 0 0 0 0 0 0 0 0 0 0 0 0 0 0 0 0 0 0 0 0 0 0 0 0 0 0 0 0 0 0 0 0 0 0 0 0 0 0 0
0 0 0 0 0 0 0 0 0 0 0 0 0 0 0 0 0 0 0 0 0 0 0 0 0 0 0 0 0 0 0 0 0 0 0 0 0 0 0 0 0 0 0 0
0 0 0 0 0 0 0 0 0 0 0 0 0 0 0 0 0 0 0 0 0 0 0 0 0 0 0 0 0 0 0 0 0 0 0 0 0 0 0 0 0 0 0 0
0 0 0 0 0 0 0 0 0 0 0 0 0 0 0 0 0 0 0 0 0 0 0 0 0 0 0 0 0 0 0 0 0 0 0 0 0 0 0 0 0 0 0 0
0 0 0 0 0 0 0 0 0 0 0 0 0 0 0 0 0 0 0 0 0 0 0 0 0 0 0 0 0 0 0 0 0 0 0 0 0 0 0 0 0 0 0 0
0 0 0 0 0 0 0 0 0 0 0 0 0 0 0 0 0 0 0 0 0 0 0 0 0 0 0 0 0 0 0 0 0 0 0 0 0 0 0 0 0 0 0 0
0 0 0 0 0 0 0 0 0 0 0 0 0 0 0 0 0 0 0 0 0 0 0 0 0 0 0 0 0 0 0 0 0 0 0 0 0 0 0 0 0 0 0 0
0 0 0 0 0 0 0 0 0 0 0 0 0 0 0 0 0 0 0 0 0 0 0 0 0 0 0 0 0 0 0 0 0 0 0 0 0 0 0 0 0 0 0 0
0 0 0 0 0 0 0 0 0 0 0 0 0 0 0 0 0 0 0 0 0 0 0 0 0 0 0 0 0 0 0 0 0 0 0 0 0 0 0 0 0 0 0 0
0 0 0 0 0 0 0 0 0 0 0 0 0 0 0 0 0 0 0 0 0 0 0 0 0 0 0 0 0 0 0 0 0 0 0 0 0 0 0 0 0 0 0 0
0 0 0 0 0 0 0 0 0 0 0 0 0 0 0 0 0 0 0 0 0 0 0 0 0 0 0 0 0 0 0 0 0 0 0 0 0 0 0 0 0 0 0 0
Height
5567 5567 5566 5566 5566 5565 5564 5563 5562 5562 5560 5560 5557 5554 5553 5551 5549 5547 5546 5544 5543 5542 5541 5540 5540 5540 5540 5540 5541 5542 5544 5545 5546 5547 5548 5550 5553 5556 5559 5563 5567 5570 5574 5577
5560 5560 5559 5558 5558 5557 5557 5556 5554 5553 5553 5552 5549 5546 5545 5543 5541 5539 5537 5535 5534 5533 5531 5530 5530 5529 5530 5530 5531 5531 5532 5534 5535 5535 5536 5538 5540 5544 5547 5550 5554 5558 5561 5564
5553 5553 5551 5552 5552 5551 5550 5549 5547 5546 5547 5543 5541 5539 5537 5535 5533 5531 5528 5526 5525 5524 5523 5522 5521 5520 5520 5521 5521 5522 5522 5523 5524 5524 5526 5527 5529 5532 5536 5539 5542 5546 5549 5552
5546 5546 5545 5549 5546 5544 5543 5542 5540 5539 5538 5536 5534 5532 5530 5528 5525 5523 5520 5518 5516 5515 5514 5513 5512 5512 5512 5512 5512 5512 5512 5513 5514 5514 5516 5517 5519 5522 5525 5528 5532 5535 5538 5541
5539 5538 5539 5541 5539 5537 5536 5536 5534 5532 5530 5528 5526 5525 5523 5520 5517 5515 5512 5509 5508 5506 5506 5505 5504 5504 5504 5503 5503 5503 5503 5504 5504 5505 5506 5508 5510 5513 5516 5519 5522 5525 5528 5530
5533 5531 5532 5535 5533 5530 5530 5529 5527 5525 5523 5521 5519 5518 5517 5513 5510 5507 5505 5502 5500 5499 5498 5498 5497 5496 5496 5496 5495 5495 5495 5495 5495 5496 5497 5499 5501 5503 5506 5509 5512 5515 5517 5519
5527 5525 5526 5527 5525 5524 5524 5524 5521 5518 5516 5514 5512 5511 5509 5506 5503 5501 5498 5495 5494 5492 5491 5491 5490 5490 5489 5489 5488 5488 5487 5487 5488 5488 5489 5491 5492 5494 5497 5500 5502 5505 5507 5509
5521 5520 5523 5521 5519 5518 5517 5515 5513 5511 5510 5508 5506 5503 5501 5499 5496 5494 5492 5490 5488 5486 5485 5484 5483 5483 5483 5482 5482 5482 5481 5481 5481 5481 5482 5483 5484 5486 5488 5490 5492 5494 5496 5498
5516 5518 5516 5514 5512 5512 5510 5509 5507 5505 5503 5501 5499 5497 5495 5493 5491 5488 5486 5484 5482 5480 5479 5478 5477 5477 5476 5476 5476 5475 5475 5474 5474 5474 5474 5475 5476 5477 5479 5480 5482 5484 5486 5487
5510 5510 5509 5507 5506 5505 5504 5502 5500 5499 5497 5495 5493 5491 5489 5487 5485 5483 5481 5478 5476 5475 5473 5472 5471 5470 5470 5469 5469 5469 5468 5467 5467 5467 5467 5468 5469 5470 5471 5471 5473 5474 5475 5477
5503 5503 5502 5501 5500 5499 5497 5495 5494 5492 5491 5489 5487 5484 5482 5481 5479 5477 5475 5473 5471 5469 5468 5467 5466 5465 5464 5463 5463 5462 5462 5461 5460 5460 5461 5461 5462 5462 5463 5463 5464 5466 5466 5467
5497 5496 5495 5495 5493 5492 5490 5489 5488 5486 5484 5482 5480 5478 5476 5475 5473 5471 5469 5467 5466 5464 5463 5461 5460 5459 5458 5457 5456 5456 5455 5455 5454 5454 5453 5453 5454 5454 5454 5455 5456 5456 5456 5457
5490 5489 5488 5487 5486 5485 5483 5482 5481 5480 5478 5477 5475 5473 5471 5469 5467 5465 5464 5462 5461 5459 5457 5456 5455 5453 5452 5451 5450 5449 5449 5448 5447 5447 5446 5446 5447 5447 5448 5448 5447 5447 5447 5448
5483 5482 5481 5480 5479 5478 5477 5476 5474 5473 5472 5470 5469 5467 5465 5463 5462 5460 5458 5457 5455 5454 5452 5451 5449 5448 5446 5445 5444 5443 5442 5442 5441 5440 5440 5440 5440 5440 5440 5440 5441 5440 5440 5440
5476 5476 5475 5474 5473 5471 5470 5469 5468 5467 5466 5464 5462 5461 5459 5457 5456 5454 5453 5451 5450 5448 5447 5445 5444 5442 5441 5439 5438 5438 5437 5436 5435 5434 5433 5433 5433 5433 5433 5433 5433 5433 5433 5433
5470 5469 5468 5467 5467 5466 5465 5464 5462 5461 5460 5458 5457 5455 5454 5452 5450 5449 5447 5446 5444 5443 5441 5439 5438 5436 5435 5434 5433 5431 5430 5429 5428 5428 5427 5426 5426 5426 5426 5426 5426 5426 5426 5427
5463 5463 5462 5462 5461 5460 5459 5458 5457 5456 5454 5453 5451 5450 5448 5447 5445 5444 5442 5441 5439 5437 5436 5434 5432 5431 5430 5428 5427 5426 5424 5423 5422 5422 5421 5421 5420 5420 5419 5419 5419 5419 5420 5420
5458 5457 5457 5456 5455 5454 5453 5452 5451 5450 5449 5448 5446 5444 5443 5442 5440 5439 5437 5436 5434 5432 5430 5428 5427 5425 5424 5422 5421 5420 5419 5417 5417 5416 5415 5414 5414 5413 5413 5413 5413 5413 5413 5413
5452 5452 5451 5450 5449 5449 5448 5447 5446 5445 5444 5443 5442 5440 5439 5437 5436 5434 5432 5430 5429 5427 5425 5423 5421 5420 5418 5417 5415 5414 5413 5411 5410 5409 5408 5408 5407 5407 5406 5406 5406 5406 5407 5407
5447 5446 5446 5445 5444 5443 5442 5442 5441 5440 5439 5438 5437 5436 5434 5432 5431 5429 5427 5425 5423 5421 5419 5418 5416 5414 5413 5411 5410 5408 5407 5405 5404 5403 5402 5402 5401 5401 5400 5400 5401 5401 5401 5402
5442 5441 5440 5439 5438 5437 5437 5436 5436 5435 5434 5433 5432 5430 5429 5427 5425 5424 5422 5420 5418 5416 5414 5412 5410 5409 5407 5405 5404 5402 5401 5399 5398 5398 5397 5396 5396 5396 5396 5396 5396 5397 5397 5398
5437 5436 5435 5434 5433 5432 5431 5431 5430 5430 5429 5428 5426 5425 5423 5422 5420 5418 5416 5414 5412 5410 5408 5406 5405 5403 5401 5400 5398 5397 5395 5394 5393 5392 5391 5391 5391 5391 5391 5391 5392 5392 5393 5394
5431 5430 5429 5428 5428 5427 5426 5425 5425 5424 5423 5422 5421 5419 5418 5416 5414 5412 5410 5408 5406 5404 5402 5400 5399 5397 5395 5394 5393 5391 5390 5389 5388 5387 5386 5386 5386 5386 5386 5387 5387 5388 5389 5390
5425 5425 5424 5423 5422 5421 5421 5420 5419 5418 5417 5416 5415 5413 5412 5410 5408 5406 5404 5402 5400 5399 5397 5395 5393 5391 5390 5388 5387 5386 5385 5384 5383 5382 5381 5381 5381 5381 5381 5381 5382 5383 5384 5385
5420 5419 5418 5417 5417 5416 5415 5414 5413 5412 5411 5410 5409 5407 5405 5404 5402 5400 5398 5396 5395 5393 5391 5389 5387 5385 5384 5383 5382 5380 5379 5378 5378 5377 5376 5376 5375 5375 5376 5376 5377 5377 5378 5379
5415 5414 5413 5412 5411 5410 5409 5409 5408 5406 5405 5404 5402 5400 5398 5397 5395 5393 5392 5390 5389 5387 5385 5383 5381 5380 5379 5377 5376 5375 5374 5373 5372 5372 5371 5370 5370 5370 5370 5370 5371 5372 5373 5374
5409 5408 5407 5406 5405 5404 5403 5403 5401 5400 5399 5397 5395 5393 5392 5390 5388 5387 5386 5384 5383 5381 5379 5378 5376 5375 5374 5373 5372 5371 5370 5369 5368 5367 5366 5366 5365 5365 5365 5365 5366 5367 5368 5369
Wind_Speed
25 26 26 26 26 26 27 28 29 28 28 27 29 30 31 31 31 32 32 32 33 34 34 35 37 38 39 40 41 41 42 41 42 43 44 46 47 47 48 49 50 50 50 50
25 26 26 26 25 26 27 28 29 29 28 27 29 29 29 29 30 30 31 32 33 33 33 33 34 35 36 36 37 38 39 40 40 40 41 42 43 44 45 46 47 47 48 48
25 25 26 26 25 25 26 27 28 28 27 27 28 28 28 29 29 29 30 31 31 32 32 31 31 32 33 35 35 36 37 37 37 38 38 39 40 41 42 43 43 44 44 44
25 25 26 25 24 25 26 26 27 26 26 26 27 27 28 28 28 28 29 30 30 31 31 31 31 31 32 32 33 34 35 36 36 36 37 37 38 39 40 40 41 41 41 42
24 25 25 24 24 25 26 25 26 26 25 26 26 27 27 28 28 28 28 28 28 29 29 29 29 29 30 30 32 32 33 35 35 35 36 37 38 38 39 39 39 39 40 41
24 24 24 23 23 24 25 25 25 26 26 26 26 26 26 27 27 27 27 27 27 27 27 27 28 27 28 28 29 30 32 33 33 34 34 34 35 36 36 37 38 38 39 39
23 24 24 23 23 23 24 25 24 25 25 26 26 26 27 27 27 26 26 26 25 25 26 27 27 26 26 26 27 27 29 30 31 32 32 33 34 35 36 37 38 38 38 38
23 24 23 23 23 23 24 24 24 24 24 25 26 26 27 27 26 26 25 25 25 24 24 25 26 25 25 25 26 26 27 27 28 30 31 32 33 34 35 36 36 36 37 37
23 23 23 23 23 23 23 23 23 23 24 25 25 26 26 25 25 25 24 24 24 23 24 24 25 25 24 25 25 26 27 27 28 28 29 29 30 31 32 33 34 34 36 36
23 23 24 24 24 24 24 24 23 24 24 24 24 25 24 23 23 23 23 23 22 22 22 23 23 23 24 25 25 25 26 26 26 26 26 27 28 29 29 30 31 32 33 35
23 24 24 24 25 25 24 24 24 24 24 24 24 24 24 23 23 23 22 22 22 22 22 22 22 23 24 24 25 24 24 25 24 24 25 26 27 28 28 29 29 31 32 34
23 24 24 24 24 24 24 24 24 24 24 24 24 23 22 22 22 22 22 21 21 21 21 21 21 22 22 23 24 24 24 24 25 25 25 26 26 27 27 27 28 29 30 31
24 24 24 24 24 24 23 23 24 24 23 23 23 22 22 21 21 21 21 21 21 21 20 21 21 21 22 22 23 23 24 24 24 25 25 25 25 25 26 27 28 28 28 28
23 22 23 23 23 23 23 23 23 23 23 23 22 22 22 21 21 21 21 21 21 20 20 20 20 21 21 21 21 22 22 23 23 24 24 24 24 24 24 25 26 25 25 26
22 21 22 22 22 22 22 22 22 22 22 22 21 21 21 21 20 20 19 20 20 20 20 20 20 20 20 20 20 21 21 22 22 23 23 23 22 22 22 22 23 23 23 23
21 21 21 21 21 21 20 20 20 20 20 20 20 20 20 20 19 19 19 19 19 19 19 19 19 19 19 19 20 20 21 21 21 21 21 21 21 21 22 21 21 22 22 22
20 20 20 20 20 19 19 19 19 19 18 18 19 19 19 19 18 18 18 18 18 19 19 19 19 19 19 19 19 19 19 19 19 19 20 21 21 22 22 21 21 22 21 21
20 20 19 19 19 19 19 19 18 18 18 18 18 18 18 18 17 17 18 18 18 18 18 19 19 19 19 19 19 19 19 19 19 20 20 20 21 21 21 21 20 21 21 21
18 19 19 19 19 19 19 18 18 17 17 17 17 17 17 18 17 18 18 18 18 18 18 19 19 19 20 20 19 19 19 19 20 20 20 20 20 20 20 19 19 19 19 19
17 18 18 18 19 19 18 18 18 18 18 18 17 18 18 18 18 18 19 19 19 19 19 20 19 20 20 19 19 19 19 19 19 19 19 19 19 18 18 17 16 16 16 17
17 17 18 18 18 18 18 18 18 18 18 18 18 18 18 19 19 19 20 20 20 20 20 20 20 19 19 19 19 18 18 18 17 17 17 17 17 16 16 15 15 15 15 15
18 18 18 18 18 18 18 18 18 18 18 19 19 19 19 19 20 20 20 20 20 20 20 20 19 19 19 18 18 18 17 17 16 16 15 16 16 16 15 15 15 15 15 14
18 19 19 18 18 18 17 18 18 18 19 19 19 20 20 20 20 20 20 19 19 20 20 19 19 19 19 18 17 17 17 16 16 15 15 15 16 16 16 16 15 16 16 16
18 18 19 19 18 18 18 18 18 19 19 19 20 21 21 21 21 21 20 20 20 20 19 19 19 19 19 17 17 17 17 16 16 15 15 15 16 16 16 16 16 16 16 16
18 18 18 18 18 18 19 19 19 19 20 20 21 22 22 22 22 21 21 21 20 20 20 19 19 18 17 16 16 16 16 16 16 16 16 16 16 16 16 16 17 17 17 16
18 18 18 18 18 18 18 18 19 20 20 21 22 22 22 22 22 22 21 21 20 20 19 18 17 17 16 15 15 15 15 15 15 15 15 15 15 15 15 15 15 15 15 15
19 19 19 19 18 18 18 18 19 19 20 21 21 22 22 22 21 21 21 20 20 19 18 17 16 15 15 15 15 14 14 13 13 13 13 13 13 13 13 13 14 14 14 14
Wind_Direction
269 271 273 274 274 274 276 279 282 284 284 285 283 283 283 281 280 279 278 275 273 271 270 267 264 262 260 260 259 259 258 259 259 260 258 256 254 253 253 254 254 253 254 254
270 272 274 275 276 277 278 279 282 283 284 284 283 283 283 282 282 282 279 276 275 273 271 269 267 263 261 260 260 259 259 260 261 261 259 256 254 253 253 253 253 254 255 256
274 274 274 276 278 278 279 281 283 284 285 282 282 282 284 284 285 286 283 279 277 276 274 272 270 267 263 261 261 262 261 262 263 262 260 258 256 253 253 254 255 255 256 257
276 276 276 279 278 279 280 282 283 284 284 282 282 283 285 287 288 288 285 282 279 277 274 273 271 269 267 266 265 264 263 263 264 263 260 258 257 254 254 255 256 256 256 258
277 277 279 280 280 281 281 282 283 283 284 284 283 283 286 288 289 289 287 283 281 277 275 273 272 271 270 269 268 266 265 265 264 263 261 259 257 255 255 256 256 256 256 258
278 280 283 284 283 283 283 284 285 285 284 284 284 285 286 286 288 287 285 283 281 279 276 274 272 272 272 271 269 268 267 266 264 263 261 261 258 256 257 257 257 257 257 259
277 280 284 286 285 284 285 289 288 287 287 287 287 289 289 288 288 288 286 283 281 279 277 274 273 273 273 272 271 271 270 268 265 263 263 262 261 258 256 257 257 259 259 259
276 278 282 285 284 285 287 288 289 289 289 289 290 291 291 291 290 289 288 285 283 280 279 276 275 276 274 273 272 272 272 270 267 265 264 263 261 260 260 260 260 261 259 259
276 279 280 282 283 284 286 287 288 289 290 291 291 292 292 291 291 290 289 287 284 283 282 280 278 275 274 274 275 274 274 273 270 268 266 265 263 263 263 262 262 261 260 260
276 277 279 281 282 284 286 286 288 289 291 292 292 291 291 290 289 289 290 288 286 285 283 282 279 275 275 276 276 275 275 274 270 269 267 265 265 264 264 263 262 262 261 261
275 276 278 281 282 282 283 283 285 287 289 292 293 293 292 290 291 290 289 288 288 287 284 283 281 278 278 277 276 275 276 275 272 269 267 268 267 267 265 264 264 262 262 262
273 275 279 280 281 281 281 281 284 287 289 291 293 293 292 291 291 291 289 287 287 286 285 283 282 281 279 277 276 276 277 275 273 269 268 269 268 265 264 265 265 265 264 262
273 276 278 279 280 281 281 281 282 284 287 289 290 291 290 290 291 291 289 287 286 285 285 285 284 284 282 281 279 277 276 275 272 269 268 269 265 262 263 264 266 265 262 263
275 276 277 278 279 280 280 280 282 283 285 287 288 290 290 288 289 290 288 287 285 285 285 286 286 286 285 283 283 281 280 277 275 272 270 269 266 265 265 264 265 265 264 264
274 274 275 277 279 279 280 281 283 284 285 286 287 289 289 289 289 289 289 288 286 287 287 287 287 286 286 285 284 283 282 279 276 273 269 267 266 266 266 268 267 264 264 264
274 274 276 277 278 279 281 282 285 286 286 288 289 290 291 289 287 286 288 289 289 290 290 289 287 285 284 285 285 284 282 279 277 274 270 269 267 267 269 270 269 265 264 264
273 275 276 277 278 280 281 283 284 286 287 289 290 291 290 289 287 286 286 289 292 292 292 291 289 289 289 288 288 287 284 281 280 277 275 272 271 271 271 271 269 267 265 263
274 275 276 277 279 281 280 281 283 285 287 291 292 293 292 291 290 288 288 290 293 295 293 292 291 290 290 290 290 290 287 285 281 280 277 275 274 273 272 271 269 267 263 261
277 278 279 280 282 282 281 280 282 284 288 291 292 293 293 292 292 292 292 293 294 294 293 293 293 292 291 290 289 288 287 286 284 281 277 276 275 274 272 270 269 266 262 260
280 281 282 283 283 281 279 280 282 284 287 290 291 292 293 293 293 293 293 293 293 293 294 294 294 293 292 290 290 290 288 287 285 282 279 276 274 272 270 267 265 263 259 257
282 283 284 286 285 282 279 278 281 283 286 288 290 292 293 294 294 295 295 293 292 292 293 294 294 293 292 291 291 291 289 288 287 284 280 274 271 269 267 264 261 259 255 253
282 284 286 287 286 285 282 279 280 282 284 287 290 292 294 296 296 296 297 295 293 292 293 293 293 293 293 293 292 290 288 287 288 285 280 275 271 268 266 264 261 258 256 256
282 283 285 285 284 283 282 281 281 283 284 286 289 291 293 296 297 298 297 295 294 294 294 294 293 293 293 292 289 288 287 286 285 282 279 276 273 270 266 263 262 260 259 258
284 285 285 285 284 283 283 283 283 284 285 287 289 291 292 294 296 296 296 295 295 295 295 294 294 294 293 288 286 285 285 284 284 281 278 276 274 271 267 264 263 261 259 258
287 287 288 286 284 283 283 284 285 285 286 289 291 291 291 291 292 294 293 293 294 294 295 294 294 293 292 288 286 286 285 284 282 281 279 277 275 272 269 265 262 259 258 257
289 290 290 288 287 284 284 285 287 288 288 289 291 292 291 290 290 291 291 291 292 294 294 294 293 291 290 289 287 289 289 287 284 282 280 279 277 275 271 267 263 259 256 255
291 290 290 289 287 285 284 287 290 291 292 291 291 292 291 291 289 289 290 290 291 292 293 293 291 289 289 288 287 289 290 290 288 285 281 279 277 276 272 266 261 258 255 254